Location: Newark
(45.2500°N, 7.5833°E)
Time: 07:26:40
(UTC+00:00)

Vanguard 3 - Pass Details

Date: 28 January 2020
Orbit: 508 x 3263 km, 33.3° (Epoch: 20 February)

Event Time Altitude Azimuth Distance (km) Brightness Sun altitude
Rises 14:18:51 0° 209° (SSW) 6,270 13.3 17.3°
Reaches altitude 10° 14:23:19 10° 200° (SSW) 5,576 13.0 16.8°
Maximum altitude 14:38:09 33° 145° (SE) 4,522 11.2 15.0°
Drops below altitude 10° 14:53:57 10° 91° (E) 5,984 11.2 13.1°
Sets 14:58:55 0° 83° (E) 6,775 11.4 12.5°
